| time (UTC) | temp C | wind direction | speed KPH | gust KPH | rain 1hr cm | rain 24hr cm | rain mn cm | humidity % | barometer mb |
| 20260906203335 | 28 | 224 | 1.6 | 3.2 | 0.00 | 0.00 | 0.00 | 52 | 1015.7 |
| 20260906202832 | 28 | 134 | 1.6 | 4.8 | 0.00 | 0.00 | 0.00 | 51 | 1015.7 |
| 20260906202326 | 27 | 124 | 0.0 | 6.4 | 0.00 | 0.00 | 0.00 | 49 | 1015.7 |
| 20260906201820 | 28 | 327 | 0.0 | 4.8 | 0.00 | 0.00 | 0.00 | 49 | 1016.0 |
| 20260906201320 | 28 | 104 | 3.2 | 12.9 | 0.00 | 0.00 | 0.00 | 49 | 1015.8 |
| 20260906200816 | 27 | 291 | 4.8 | 6.4 | 0.00 | 0.00 | 0.00 | 51 | 1015.8 |
| 20260906200312 | 27 | 296 | 1.6 | 1.6 | 0.00 | 0.00 | 0.00 | 53 | 1015.9 |
| 20260906195807 | 27 | 135 | 1.6 | 3.2 | 0.00 | 0.00 | 0.00 | 53 | 1015.9 |
| 20260906195306 | 27 | 155 | 1.6 | 4.8 | 0.00 | 0.00 | 0.00 | 53 | 1015.9 |
| 20260906194759 | 27 | 140 | 0.0 | 8.0 | 0.00 | 0.00 | 0.00 | 50 | 1016.0 |
| 20260906194254 | 27 | 191 | 0.0 | 1.6 | 0.00 | 0.00 | 0.00 | 55 | 1015.8 |
| 20260906193749 | 27 | 237 | 1.6 | 9.7 | 0.00 | 0.00 | 0.00 | 52 | 1015.8 |
| 20260906193244 | 28 | 257 | 3.2 | 6.4 | 0.00 | 0.00 | 0.00 | 52 | 1015.9 |
| 20260906192740 | 28 | 118 | 4.8 | 8.0 | 0.00 | 0.00 | 0.00 | 54 | 1015.7 |
| 20260906192234 | 28 | 294 | 6.4 | 8.0 | 0.00 | 0.00 | 0.00 | 51 | 1015.8 |
| 20260906191733 | 28 | 135 | 6.4 | 8.0 | 0.00 | 0.00 | 0.00 | 51 | 1015.6 |
| 20260906191228 | 27 | 317 | 3.2 | 8.0 | 0.00 | 0.00 | 0.00 | 51 | 1016.0 |
| 20260906190728 | 28 | 200 | 4.8 | 8.0 | 0.00 | 0.00 | 0.00 | 50 | 1015.9 |
| 20260906190222 | 28 | 165 | 4.8 | 6.4 | 0.00 | 0.00 | 0.00 | 52 | 1015.9 |
| 20260906185721 | 27 | 182 | 3.2 | 4.8 | 0.00 | 0.00 | 0.00 | 53 | 1016.1 |
| 20260906185221 | 28 | 130 | 4.8 | 8.0 | 0.00 | 0.00 | 0.00 | 49 | 1016.3 |
| 20260906184715 | 28 | 243 | 4.8 | 6.4 | 0.00 | 0.00 | 0.00 | 50 | 1016.0 |
| 20260906184211 | 28 | 231 | 6.4 | 8.0 | 0.00 | 0.00 | 0.00 | 51 | 1016.1 |
| 20260906183707 | 28 | 282 | 4.8 | 4.8 | 0.00 | 0.00 | 0.00 | 53 | 1016.1 |
| 20260906183203 | 27 | 285 | 3.2 | 8.0 | 0.00 | 0.00 | 0.00 | 52 | 1016.2 |
| 20260906182702 | 28 | 131 | 3.2 | 8.0 | 0.00 | 0.00 | 0.00 | 53 | 1016.2 |
| 20260906182158 | 28 | 159 | 3.2 | 4.8 | 0.00 | 0.00 | 0.00 | 50 | 1016.2 |
| 20260906181653 | 27 | 220 | 4.8 | 4.8 | 0.00 | 0.00 | 0.00 | 54 | 1016.3 |
| 20260906181149 | 27 | 218 | 1.6 | 4.8 | 0.00 | 0.00 | 0.00 | 55 | 1016.4 |
| 20260906180644 | 27 | 150 | 4.8 | 6.4 | 0.00 | 0.00 | 0.00 | 54 | 1016.3 |
| 20260906180139 | 27 | 196 | 1.6 | 4.8 | 0.00 | 0.00 | 0.00 | 53 | 1016.1 |
| 20260906175637 | 27 | 274 | 6.4 | 6.4 | 0.00 | 0.00 | 0.00 | 54 | 1016.1 |
| 20260906175132 | 27 | 210 | 4.8 | 6.4 | 0.00 | 0.00 | 0.00 | 53 | 1016.3 |
| 20260906174630 | 27 | 235 | 8.0 | 9.7 | 0.00 | 0.00 | 0.00 | 54 | 1016.1 |
| 20260906174125 | 27 | 277 | 6.4 | 8.0 | 0.00 | 0.00 | 0.00 | 53 | 1016.3 |
| 20260906173620 | 27 | 223 | 4.8 | 8.0 | 0.00 | 0.00 | 0.00 | 54 | 1016.3 |
| 20260906173110 | 27 | 166 | 0.0 | 8.0 | 0.00 | 0.00 | 0.00 | 52 | 1016.2 |
| 20260906172610 | 27 | 309 | 0.0 | 4.8 | 0.00 | 0.00 | 0.00 | 54 | 1016.2 |
| 20260906172106 | 27 | 232 | 3.2 | 6.4 | 0.00 | 0.00 | 0.00 | 54 | 1016.4 |
| 20260906171605 | 27 | 260 | 3.2 | 6.4 | 0.00 | 0.00 | 0.00 | 53 | 1016.3 |
| 20260906171101 | 27 | 212 | 6.4 | 14.5 | 0.00 | 0.00 | 0.00 | 53 | 1016.4 |
| 20260906170556 | 26 | 212 | 0.0 | 6.4 | 0.00 | 0.00 | 0.00 | 54 | 1016.4 |
| 20260906170055 | 27 | 200 | 3.2 | 6.4 | 0.00 | 0.00 | 0.00 | 56 | 1016.4 |
| 20260906165552 | 27 | 219 | 3.2 | 6.4 | 0.00 | 0.00 | 0.00 | 56 | 1016.4 |
| 20260906165047 | 27 | 347 | 1.6 | 8.0 | 0.00 | 0.00 | 0.00 | 56 | 1016.6 |
| 20260906164546 | 27 | 160 | 0.0 | 3.2 | 0.00 | 0.00 | 0.00 | 53 | 1016.5 |
| 20260906164042 | 26 | 28 | 0.0 | 6.4 | 0.00 | 0.00 | 0.00 | 54 | 1016.6 |
| 20260906163538 | 26 | 276 | 4.8 | 8.0 | 0.00 | 0.00 | 0.00 | 54 | 1016.7 |
| 20260906163033 | 26 | 209 | 4.8 | 9.7 | 0.00 | 0.00 | 0.00 | 54 | 1016.5 |
| 20260906162530 | 26 | 143 | 4.8 | 6.4 | 0.00 | 0.00 | 0.00 | 54 | 1016.8 |
| 20260906162025 | 26 | 132 | 3.2 | 3.2 | 0.00 | 0.00 | 0.00 | 54 | 1016.8 |
| 20260906161521 | 26 | 189 | 3.2 | 4.8 | 0.00 | 0.00 | 0.00 | 55 | 1016.8 |
| 20260906161019 | 27 | 258 | 3.2 | 6.4 | 0.00 | 0.00 | 0.00 | 58 | 1016.6 |
| 20260906160518 | 26 | 302 | 0.0 | 3.2 | 0.00 | 0.00 | 0.00 | 60 | 1016.7 |
| 20260906160017 | 26 | 157 | 4.8 | 4.8 | 0.00 | 0.00 | 0.00 | 58 | 1016.8 |
| 20260906155514 | 26 | 151 | 3.2 | 4.8 | 0.00 | 0.00 | 0.00 | 61 | 1016.9 |
| 20260906155011 | 26 | 230 | 3.2 | 4.8 | 0.00 | 0.00 | 0.00 | 61 | 1017.1 |
| 20260906154506 | 26 | 211 | 4.8 | 4.8 | 0.00 | 0.00 | 0.00 | 58 | 1017.1 |
| 20260906154004 | 26 | 239 | 1.6 | 4.8 | 0.00 | 0.00 | 0.00 | 61 | 1017.1 |
| 20260906153503 | 26 | 210 | 3.2 | 8.0 | 0.00 | 0.00 | 0.00 | 58 | 1017.2 |
| 20260906152959 | 26 | 85 | 0.0 | 12.9 | 0.00 | 0.00 | 0.00 | 60 | 1017.0 |
| 20260906152458 | 26 | 247 | 1.6 | 11.3 | 0.00 | 0.00 | 0.00 | 59 | 1016.9 |
| 20260906151952 | 26 | 178 | 1.6 | 8.0 | 0.00 | 0.00 | 0.00 | 60 | 1017.1 |
| 20260906151448 | 26 | 359 | 0.0 | 3.2 | 0.00 | 0.00 | 0.00 | 63 | 1017.0 |
| 20260906150944 | 26 | 281 | 1.6 | 8.0 | 0.00 | 0.00 | 0.00 | 64 | 1016.9 |
| 20260906150439 | 26 | 252 | 8.0 | 8.0 | 0.00 | 0.00 | 0.00 | 62 | 1016.8 |
| 20260906145932 | 25 | 185 | 3.2 | 8.0 | 0.00 | 0.00 | 0.00 | 68 | 1016.7 |
| 20260906145431 | 25 | 254 | 0.0 | 1.6 | 0.00 | 0.00 | 0.00 | 72 | 1016.7 |
| 20260906144926 | 25 | 262 | 6.4 | 6.4 | 0.00 | 0.00 | 0.00 | 70 | 1016.6 |
| 20260906144421 | 25 | 264 | 0.0 | 3.2 | 0.00 | 0.00 | 0.00 | 73 | 1016.8 |
| 20260906143916 | 25 | 254 | 0.0 | 4.8 | 0.00 | 0.00 | 0.00 | 74 | 1016.7 |
| 20260906143412 | 24 | 212 | 3.2 | 3.2 | 0.00 | 0.00 | 0.00 | 74 | 1016.7 |
| 20260906142908 | 24 | 168 | 1.6 | 4.8 | 0.00 | 0.00 | 0.00 | 76 | 1016.6 |
| 20260906142407 | 24 | 67 | 0.0 | 1.6 | 0.00 | 0.00 | 0.00 | 76 | 1016.6 |
| 20260906141902 | 24 | 194 | 1.6 | 6.4 | 0.00 | 0.00 | 0.00 | 75 | 1016.6 |
| 20260906141401 | 24 | 200 | 3.2 | 4.8 | 0.00 | 0.00 | 0.00 | 77 | 1016.7 |
| 20260906140856 | 23 | 152 | 0.0 | 3.2 | 0.00 | 0.00 | 0.00 | 79 | 1016.4 |
| 20260906140351 | 23 | 215 | 1.6 | 3.2 | 0.00 | 0.00 | 0.00 | 79 | 1016.4 |
| 20260906135849 | 23 | 257 | 3.2 | 4.8 | 0.00 | 0.00 | 0.00 | 76 | 1016.6 |
| 20260906135349 | 23 | 201 | 3.2 | 3.2 | 0.00 | 0.00 | 0.00 | 78 | 1016.5 |
| 20260906134844 | 23 | 178 | 0.0 | 4.8 | 0.00 | 0.00 | 0.00 | 80 | 1016.5 |
| 20260906134339 | 23 | 187 | 0.0 | 3.2 | 0.00 | 0.00 | 0.00 | 77 | 1016.6 |
| 20260906133834 | 23 | 144 | 0.0 | 6.4 | 0.00 | 0.00 | 0.00 | 79 | 1016.3 |
| 20260906133324 | 23 | 196 | 4.8 | 4.8 | 0.00 | 0.00 | 0.00 | 78 | 1016.4 |
| 20260906132820 | 23 | 185 | 1.6 | 6.4 | 0.00 | 0.00 | 0.00 | 79 | 1016.3 |
| 20260906132315 | 22 | 210 | 3.2 | 6.4 | 0.00 | 0.00 | 0.00 | 82 | 1016.4 |
| 20260906131810 | 22 | 211 | 4.8 | 9.7 | 0.00 | 0.00 | 0.00 | 81 | 1016.2 |
| 20260906131305 | 22 | 222 | 1.6 | 8.0 | 0.00 | 0.00 | 0.00 | 84 | 1016.2 |
| 20260906130801 | 22 | 253 | 0.0 | 8.0 | 0.00 | 0.00 | 0.00 | 85 | 1016.0 |
| 20260906130256 | 21 | 283 | 4.8 | 4.8 | 0.00 | 0.00 | 0.00 | 86 | 1016.1 |
| 20260906125754 | 21 | 210 | 3.2 | 4.8 | 0.00 | 0.00 | 0.00 | 87 | 1016.1 |
| 20260906125252 | 21 | 185 | 3.2 | 4.8 | 0.00 | 0.00 | 0.00 | 87 | 1016.2 |
| 20260906124752 | 21 | 178 | 0.0 | 4.8 | 0.00 | 0.00 | 0.00 | 88 | 1016.1 |
| 20260906124249 | 21 | 156 | 0.0 | 3.2 | 0.00 | 0.00 | 0.00 | 90 | 1016.5 |
| 20260906123747 | 21 | 177 | 0.0 | 1.6 | 0.00 | 0.00 | 0.00 | 89 | 1016.6 |
| 20260906123242 | 21 | 181 | 3.2 | 4.8 | 0.00 | 0.00 | 0.00 | 89 | 1016.2 |
| 20260906122742 | 21 | 158 | 1.6 | 4.8 | 0.00 | 0.00 | 0.00 | 90 | 1016.2 |
| 20260906122237 | 21 | 104 | 3.2 | 4.8 | 0.00 | 0.00 | 0.00 | 89 | 1016.2 |
| 20260906121734 | 21 | 170 | 3.2 | 3.2 | 0.00 | 0.00 | 0.00 | 89 | 1016.3 |
| 20260906121230 | 21 | 164 | 3.2 | 3.2 | 0.00 | 0.00 | 0.00 | 90 | 1016.2 |
| 20260906120725 | 21 | 174 | 1.6 | 3.2 | 0.00 | 0.00 | 0.00 | 91 | 1015.9 |
| 20260906120222 | 21 | 164 | 3.2 | 4.8 | 0.00 | 0.00 | 0.00 | 91 | 1015.9 |
| 20260906115717 | 21 | 224 | 1.6 | 4.8 | 0.00 | 0.00 | 0.00 | 92 | 1015.7 |
| 20260906115212 | 21 | 199 | 0.0 | 4.8 | 0.00 | 0.00 | 0.00 | 92 | 1015.8 |
| 20260906114711 | 21 | 176 | 3.2 | 4.8 | 0.00 | 0.00 | 0.00 | 93 | 1015.6 |
| 20260906114206 | 21 | 137 | 1.6 | 3.2 | 0.00 | 0.00 | 0.00 | 95 | 1015.9 |
| 20260906113701 | 21 | 155 | 3.2 | 3.2 | 0.00 | 0.00 | 0.00 | 95 | 1015.6 |
| 20260906113201 | 21 | 117 | 1.6 | 1.6 | 0.00 | 0.00 | 0.00 | 96 | 1015.6 |
| 20260906112700 | 21 | 149 | 0.0 | 3.2 | 0.00 | 0.00 | 0.00 | 96 | 1015.6 |
| 20260906112158 | 21 | 154 | 3.2 | 4.8 | 0.00 | 0.00 | 0.00 | 97 | 1015.5 |
| 20260906111657 | 21 | 141 | 3.2 | 4.8 | 0.00 | 0.00 | 0.00 | 98 | 1015.2 |
| 20260906111151 | 21 | 188 | 3.2 | 3.2 | 0.00 | 0.00 | 0.00 | 98 | 1015.3 |
| 20260906110646 | 21 | 157 | 1.6 | 3.2 | 0.00 | 0.00 | 0.00 | 99 | 1015.1 |
| 20260906110142 | 21 | 160 | 0.0 | 1.6 | 0.00 | 0.00 | 0.00 | 99 | 1015.0 |
| 20260906105636 | 21 | 140 | 0.0 | 3.2 | 0.00 | 0.00 | 0.00 | 99 | 1014.9 |
| 20260906105132 | 21 | 148 | 3.2 | 4.8 | 0.00 | 0.00 | 0.00 | 99 | 1015.1 |
| 20260906104632 | 21 | 152 | 1.6 | 3.2 | 0.00 | 0.00 | 0.00 | 99 | 1015.0 |
| 20260906104131 | 21 | 150 | 0.0 | 3.2 | 0.00 | 0.00 | 0.00 | 99 | 1014.8 |
| 20260906103629 | 21 | 196 | 0.0 | 3.2 | 0.00 | 0.00 | 0.00 | 99 | 1015.0 |
| 20260906103124 | 21 | 172 | 0.0 | 1.6 | 0.00 | 0.00 | 0.00 | 99 | 1015.0 |
| 20260906102619 | 21 | 168 | 1.6 | 3.2 | 0.00 | 0.00 | 0.00 | 99 | 1014.9 |
| 20260906102114 | 21 | 170 | 3.2 | 3.2 | 0.00 | 0.00 | 0.00 | 99 | 1014.8 |
| 20260906101615 | 21 | 157 | 3.2 | 3.2 | 0.00 | 0.00 | 0.00 | 99 | 1014.6 |
| 20260906101115 | 21 | 152 | 1.6 | 3.2 | 0.00 | 0.00 | 0.00 | 99 | 1014.7 |
| 20260906100610 | 21 | 154 | 3.2 | 3.2 | 0.00 | 0.00 | 0.00 | 99 | 1014.6 |
| 20260906100110 | 21 | 162 | 3.2 | 3.2 | 0.00 | 0.00 | 0.00 | 99 | 1014.5 |
| 20260906095610 | 21 | 155 | 3.2 | 3.2 | 0.00 | 0.00 | 0.00 | 99 | 1014.3 |
| 20260906095105 | 21 | 168 | 0.0 | 3.2 | 0.00 | 0.00 | 0.00 | 99 | 1014.2 |
| 20260906094604 | 21 | 147 | 3.2 | 3.2 | 0.00 | 0.00 | 0.00 | 99 | 1014.3 |
| 20260906094101 | 21 | 171 | 0.0 | 1.6 | 0.00 | 0.00 | 0.00 | 99 | 1014.4 |
| 20260906093556 | 21 | 155 | 1.6 | 1.6 | 0.00 | 0.00 | 0.00 | 99 | 1014.3 |
| 20260906093051 | 21 | 144 | 1.6 | 3.2 | 0.00 | 0.00 | 0.00 | 99 | 1014.4 |
| 20260906092546 | 21 | 145 | 1.6 | 4.8 | 0.00 | 0.00 | 0.00 | 99 | 1014.2 |
| 20260906092041 | 21 | 157 | 1.6 | 3.2 | 0.00 | 0.00 | 0.00 | 99 | 1013.9 |
| 20260906091537 | 21 | 178 | 1.6 | 3.2 | 0.00 | 0.00 | 0.00 | 99 | 1014.0 |
| 20260906091033 | 21 | 149 | 3.2 | 3.2 | 0.00 | 0.00 | 0.00 | 99 | 1013.9 |
| 20260906090528 | 21 | 160 | 0.0 | 0.0 | 0.00 | 0.00 | 0.00 | 99 | 1013.9 |
| 20260906090023 | 21 | 109 | 0.0 | 1.6 | 0.00 | 0.00 | 0.00 | 99 | 1013.8 |
| 20260906085521 | 21 | 80 | 0.0 | 1.6 | 0.00 | 0.00 | 0.00 | 99 | 1014.0 |
| 20260906085021 | 21 | 160 | 1.6 | 3.2 | 0.00 | 0.00 | 0.00 | 99 | 1013.7 |
| 20260906084516 | 21 | 168 | 1.6 | 3.2 | 0.00 | 0.00 | 0.00 | 99 | 1013.9 |
| 20260906084014 | 21 | 147 | 0.0 | 3.2 | 0.00 | 0.00 | 0.00 | 99 | 1013.8 |
| 20260906083511 | 22 | 184 | 1.6 | 3.2 | 0.00 | 0.00 | 0.00 | 99 | 1013.8 |
| 20260906083010 | 22 | 146 | 0.0 | 1.6 | 0.00 | 0.00 | 0.00 | 99 | 1013.8 |
| 20260906082505 | 22 | 160 | 0.0 | 3.2 | 0.00 | 0.00 | 0.00 | 99 | 1013.8 |
| 20260906082001 | 22 | 143 | 0.0 | 3.2 | 0.00 | 0.00 | 0.00 | 99 | 1013.8 |
| 20260906081456 | 22 | 165 | 0.0 | 3.2 | 0.00 | 0.00 | 0.00 | 99 | 1013.7 |
| 20260906080952 | 22 | 151 | 0.0 | 3.2 | 0.00 | 0.00 | 0.00 | 99 | 1013.7 |
| 20260906080449 | 22 | 107 | 0.0 | 1.6 | 0.00 | 0.00 | 0.00 | 99 | 1013.7 |
| 20260906075949 | 22 | 163 | 0.0 | 1.6 | 0.00 | 0.00 | 0.00 | 99 | 1013.6 |
| 20260906075444 | 22 | 136 | 0.0 | 1.6 | 0.00 | 0.00 | 0.00 | 99 | 1013.6 |
| 20260906074939 | 22 | 146 | 1.6 | 1.6 | 0.00 | 0.00 | 0.00 | 99 | 1013.5 |
| 20260906074433 | 22 | 159 | 0.0 | 3.2 | 0.00 | 0.00 | 0.00 | 99 | 1013.4 |
| 20260906073931 | 22 | 146 | 0.0 | 1.6 | 0.00 | 0.00 | 0.00 | 99 | 1013.6 |
| 20260906073426 | 22 | 191 | 1.6 | 1.6 | 0.00 | 0.00 | 0.00 | 99 | 1013.5 |
| 20260906072923 | 22 | 205 | 1.6 | 4.8 | 0.00 | 0.00 | 0.00 | 99 | 1013.5 |
| 20260906072418 | 22 | 146 | 3.2 | 3.2 | 0.00 | 0.00 | 0.00 | 99 | 1013.5 |
| 20260906071914 | 22 | 143 | 1.6 | 3.2 | 0.00 | 0.00 | 0.00 | 99 | 1013.7 |
| 20260906071409 | 22 | 172 | 0.0 | 3.2 | 0.00 | 0.00 | 0.00 | 99 | 1013.5 |
| 20260906070905 | 22 | 165 | 3.2 | 3.2 | 0.00 | 0.00 | 0.00 | 99 | 1013.5 |
| 20260906070401 | 22 | 143 | 1.6 | 3.2 | 0.00 | 0.00 | 0.00 | 99 | 1013.4 |
| 20260906065856 | 22 | 132 | 1.6 | 3.2 | 0.00 | 0.00 | 0.00 | 99 | 1013.4 |
| 20260906065350 | 22 | 184 | 1.6 | 1.6 | 0.00 | 0.00 | 0.00 | 99 | 1013.6 |
| 20260906064846 | 22 | 151 | 3.2 | 3.2 | 0.00 | 0.00 | 0.00 | 99 | 1013.2 |
| 20260906064342 | 22 | 133 | 1.6 | 3.2 | 0.00 | 0.00 | 0.00 | 99 | 1013.2 |
| 20260906063836 | 22 | 147 | 0.0 | 1.6 | 0.00 | 0.00 | 0.00 | 99 | 1013.4 |
| 20260906063332 | 22 | 185 | 3.2 | 3.2 | 0.00 | 0.00 | 0.00 | 99 | 1013.7 |
| 20260906062827 | 22 | 162 | 3.2 | 3.2 | 0.00 | 0.00 | 0.00 | 99 | 1013.9 |
| 20260906062326 | 22 | 159 | 1.6 | 3.2 | 0.00 | 0.00 | 0.00 | 99 | 1013.5 |
| 20260906061822 | 22 | 149 | 1.6 | 3.2 | 0.00 | 0.00 | 0.00 | 99 | 1013.8 |
| 20260906061318 | 22 | 135 | 3.2 | 3.2 | 0.00 | 0.00 | 0.00 | 99 | 1013.7 |
| 20260906060813 | 22 | 148 | 1.6 | 3.2 | 0.00 | 0.00 | 0.00 | 99 | 1013.7 |
| 20260906060310 | 22 | 139 | 1.6 | 3.2 | 0.00 | 0.00 | 0.00 | 99 | 1013.8 |
| 20260906055806 | 22 | 125 | 1.6 | 3.2 | 0.00 | 0.00 | 0.00 | 99 | 1013.9 |
| 20260906055301 | 22 | 186 | 1.6 | 3.2 | 0.00 | 0.00 | 0.00 | 99 | 1013.9 |
| 20260906054756 | 22 | 128 | 0.0 | 1.6 | 0.00 | 0.00 | 0.00 | 99 | 1013.9 |
| 20260906054252 | 22 | 270 | 1.6 | 3.2 | 0.00 | 0.00 | 0.00 | 99 | 1013.9 |
| 20260906053748 | 22 | 157 | 1.6 | 1.6 | 0.00 | 0.00 | 0.00 | 99 | 1013.8 |
| 20260906053244 | 22 | 178 | 3.2 | 4.8 | 0.00 | 0.00 | 0.00 | 99 | 1013.9 |
| 20260906052738 | 22 | 168 | 3.2 | 4.8 | 0.00 | 0.00 | 0.00 | 99 | 1013.7 |
| 20260906052235 | 22 | 176 | 1.6 | 3.2 | 0.00 | 0.00 | 0.00 | 99 | 1014.0 |
| 20260906051731 | 22 | 156 | 1.6 | 3.2 | 0.00 | 0.00 | 0.00 | 99 | 1014.1 |
| 20260906051231 | 22 | 142 | 1.6 | 3.2 | 0.00 | 0.00 | 0.00 | 99 | 1014.2 |
| 20260906050727 | 22 | 134 | 1.6 | 3.2 | 0.00 | 0.00 | 0.00 | 99 | 1014.1 |
| 20260906050222 | 22 | 165 | 0.0 | 1.6 | 0.00 | 0.00 | 0.00 | 99 | 1014.1 |
| 20260906045720 | 22 | 149 | 1.6 | 3.2 | 0.00 | 0.00 | 0.00 | 99 | 1014.1 |
| 20260906045216 | 22 | 154 | 0.0 | 3.2 | 0.00 | 0.00 | 0.00 | 99 | 1014.2 |
| 20260906044711 | 22 | 149 | 3.2 | 3.2 | 0.00 | 0.00 | 0.00 | 99 | 1014.0 |
| 20260906044206 | 22 | 157 | 1.6 | 3.2 | 0.00 | 0.00 | 0.00 | 99 | 1014.1 |
| 20260906043702 | 22 | 180 | 0.0 | 3.2 | 0.00 | 0.00 | 0.00 | 99 | 1014.0 |
| 20260906043158 | 22 | 174 | 3.2 | 3.2 | 0.00 | 0.00 | 0.00 | 99 | 1013.9 |
| 20260906042657 | 22 | 180 | 1.6 | 3.2 | 0.00 | 0.00 | 0.00 | 99 | 1013.9 |
| 20260906042151 | 22 | 175 | 1.6 | 1.6 | 0.00 | 0.00 | 0.00 | 99 | 1013.9 |
| 20260906041647 | 22 | 205 | 1.6 | 1.6 | 0.00 | 0.00 | 0.00 | 99 | 1014.2 |
| 20260906041142 | 21 | 180 | 1.6 | 3.2 | 0.00 | 0.00 | 0.00 | 99 | 1014.2 |
| 20260906040637 | 21 | 152 | 1.6 | 3.2 | 0.00 | 0.00 | 0.00 | 99 | 1013.9 |
| 20260906040133 | 21 | 256 | 0.0 | 1.6 | 0.00 | 0.00 | 0.00 | 99 | 1014.1 |
| 20260906035628 | 21 | 140 | 0.0 | 3.2 | 0.00 | 1.17 | 1.17 | 99 | 1014.2 |
| 20260906035123 | 21 | 161 | 3.2 | 3.2 | 0.00 | 1.17 | 1.17 | 99 | 1014.1 |
| 20260906034617 | 21 | 173 | 1.6 | 3.2 | 0.00 | 1.17 | 1.17 | 99 | 1014.3 |
| 20260906034112 | 21 | 127 | 3.2 | 3.2 | 0.00 | 1.17 | 1.17 | 99 | 1014.1 |
| 20260906033609 | 21 | 167 | 0.0 | 1.6 | 0.00 | 1.17 | 1.17 | 99 | 1014.1 |
| 20260906033103 | 21 | 168 | 3.2 | 4.8 | 0.00 | 1.17 | 1.17 | 99 | 1014.0 |
| 20260906032600 | 21 | 205 | 0.0 | 3.2 | 0.00 | 1.17 | 1.17 | 99 | 1013.8 |
| 20260906032059 | 21 | 165 | 1.6 | 3.2 | 0.00 | 1.17 | 1.17 | 99 | 1014.2 |
| 20260906031555 | 22 | 152 | 1.6 | 3.2 | 0.00 | 1.17 | 1.17 | 99 | 1014.1 |
| 20260906031050 | 22 | 140 | 3.2 | 3.2 | 0.00 | 1.17 | 1.17 | 99 | 1013.9 |
| 20260906030549 | 22 | 111 | 0.0 | 1.6 | 0.00 | 1.17 | 1.17 | 99 | 1013.8 |
| 20260906030044 | 22 | 159 | 0.0 | 3.2 | 0.00 | 1.17 | 1.17 | 99 | 1014.1 |
| 20260906025544 | 22 | 171 | 0.0 | 1.6 | 0.00 | 1.17 | 1.17 | 99 | 1014.0 |
| 20260906025042 | 22 | 142 | 0.0 | 1.6 | 0.00 | 1.17 | 1.17 | 99 | 1013.9 |
| 20260906024538 | 22 | 139 | 1.6 | 3.2 | 0.00 | 1.17 | 1.17 | 99 | 1014.0 |
| 20260906024037 | 22 | 160 | 1.6 | 1.6 | 0.00 | 1.17 | 1.17 | 99 | 1013.9 |
| 20260906023534 | 22 | 190 | 0.0 | 0.0 | 0.00 | 1.17 | 1.17 | 99 | 1013.9 |
| 20260906023028 | 22 | 137 | 0.0 | 1.6 | 0.00 | 1.17 | 1.17 | 98 | 1014.0 |
| 20260906022523 | 22 | 139 | 0.0 | 1.6 | 0.00 | 1.17 | 1.17 | 98 | 1014.2 |
| 20260906022019 | 22 | 140 | 1.6 | 1.6 | 0.00 | 1.17 | 1.17 | 98 | 1014.1 |
| 20260906021514 | 22 | 147 | 0.0 | 0.0 | 0.00 | 1.17 | 1.17 | 98 | 1014.1 |
| 20260906021008 | 22 | 147 | 0.0 | 0.0 | 0.00 | 1.17 | 1.17 | 98 | 1014.1 |
| 20260906020508 | 22 | 134 | 0.0 | 1.6 | 0.00 | 1.17 | 1.17 | 98 | 1014.3 |
| 20260906020007 | 22 | 138 | 1.6 | 3.2 | 0.00 | 1.17 | 1.17 | 98 | 1014.2 |
| 20260906015506 | 22 | 119 | 0.0 | 0.0 | 0.00 | 1.17 | 1.17 | 98 | 1014.0 |
| 20260906015001 | 22 | 119 | 0.0 | 0.0 | 0.00 | 1.17 | 1.17 | 98 | 1013.9 |
| 20260906014455 | 22 | 119 | 0.0 | 1.6 | 0.00 | 1.17 | 1.17 | 98 | 1014.0 |
| 20260906013951 | 22 | 147 | 0.0 | 1.6 | 0.00 | 1.17 | 1.17 | 98 | 1013.9 |
| 20260906013447 | 22 | 191 | 1.6 | 1.6 | 0.00 | 1.17 | 1.17 | 98 | 1013.7 |
| 20260906012942 | 22 | 172 | 0.0 | 3.2 | 0.00 | 1.17 | 1.17 | 98 | 1013.8 |
| 20260906012437 | 23 | 169 | 1.6 | 3.2 | 0.00 | 1.17 | 1.17 | 98 | 1013.7 |
| 20260906011936 | 23 | 165 | 0.0 | 3.2 | 0.00 | 1.17 | 1.17 | 98 | 1013.6 |
| 20260906011432 | 23 | 172 | 0.0 | 1.6 | 0.00 | 1.17 | 1.17 | 98 | 1013.6 |
| 20260906010927 | 22 | 184 | 0.0 | 0.0 | 0.00 | 1.17 | 1.17 | 98 | 1013.4 |
| 20260906010422 | 22 | 175 | 0.0 | 3.2 | 0.00 | 1.17 | 1.17 | 97 | 1013.5 |
| 20260906005918 | 22 | 188 | 1.6 | 3.2 | 0.00 | 1.17 | 1.17 | 97 | 1013.2 |
| 20260906005418 | 22 | 154 | 0.0 | 0.0 | 0.00 | 1.17 | 1.17 | 97 | 1013.1 |
| 20260906004916 | 22 | 144 | 0.0 | 1.6 | 0.00 | 1.17 | 1.17 | 97 | 1013.0 |
| 20260906004411 | 23 | 125 | 1.6 | 3.2 | 0.00 | 1.17 | 1.17 | 96 | 1013.2 |
| 20260906003907 | 23 | 140 | 1.6 | 1.6 | 0.00 | 1.17 | 1.17 | 96 | 1013.1 |
| 20260906003402 | 23 | 157 | 1.6 | 3.2 | 0.00 | 1.17 | 1.17 | 97 | 1013.0 |
| 20260906002857 | 23 | 203 | 0.0 | 1.6 | 0.00 | 1.17 | 1.17 | 96 | 1013.0 |
| 20260906002356 | 23 | 191 | 1.6 | 3.2 | 0.00 | 1.17 | 1.17 | 96 | 1013.1 |
| 20260906001851 | 23 | 161 | 1.6 | 3.2 | 0.00 | 1.17 | 1.17 | 96 | 1012.6 |
| 20260906001347 | 23 | 170 | 1.6 | 3.2 | 0.00 | 1.17 | 1.17 | 96 | 1012.8 |
| 20260906000843 | 23 | 177 | 0.0 | 0.0 | 0.00 | 1.17 | 1.17 | 96 | 1012.5 |
| 20260906000342 | 23 | 159 | 0.0 | 1.6 | 0.00 | 1.17 | 1.17 | 95 | 1012.4 |
| 20260905235843 | 23 | 135 | 1.6 | 3.2 | 0.00 | 1.17 | 1.17 | 95 | 1012.5 |
| 20260905235337 | 23 | 168 | 1.6 | 1.6 | 0.00 | 1.17 | 1.17 | 95 | 1012.3 |
| 20260905234832 | 23 | 159 | 0.0 | 1.6 | 0.00 | 1.17 | 1.17 | 95 | 1012.6 |
| 20260905234328 | 23 | 127 | 1.6 | 3.2 | 0.00 | 1.17 | 1.17 | 95 | 1012.6 |
| 20260905233823 | 23 | 126 | 1.6 | 1.6 | 0.00 | 1.17 | 1.17 | 94 | 1012.5 |
| 20260905233318 | 23 | 183 | 1.6 | 3.2 | 0.00 | 1.17 | 1.17 | 94 | 1012.4 |
| 20260905232817 | 24 | 174 | 1.6 | 3.2 | 0.00 | 1.17 | 1.17 | 93 | 1012.1 |
| 20260905232313 | 24 | 149 | 0.0 | 3.2 | 0.00 | 1.17 | 1.17 | 91 | 1012.3 |
| 20260905231809 | 24 | 147 | 0.0 | 1.6 | 0.00 | 1.17 | 1.17 | 91 | 1011.9 |
| 20260905231303 | 24 | 242 | 0.0 | 0.0 | 0.00 | 1.17 | 1.17 | 90 | 1011.9 |
| 20260905230800 | 25 | 119 | 0.0 | 1.6 | 0.00 | 1.17 | 1.17 | 89 | 1012.3 |
| 20260905230257 | 25 | 164 | 0.0 | 1.6 | 0.00 | 1.17 | 1.17 | 87 | 1012.5 |
| 20260905225757 | 25 | 184 | 0.0 | 1.6 | 0.00 | 1.17 | 1.17 | 86 | 1012.7 |
| 20260905225252 | 25 | 166 | 0.0 | 1.6 | 0.00 | 1.17 | 1.17 | 85 | 1012.7 |
| 20260905224752 | 25 | 168 | 1.6 | 3.2 | 0.00 | 1.17 | 1.17 | 84 | 1012.7 |
| 20260905224247 | 26 | 180 | 1.6 | 1.6 | 0.00 | 1.17 | 1.17 | 83 | 1012.4 |
| 20260905223743 | 26 | 173 | 1.6 | 3.2 | 0.00 | 1.17 | 1.17 | 83 | 1012.6 |
| 20260905223240 | 26 | 182 | 0.0 | 3.2 | 0.00 | 1.17 | 1.17 | 82 | 1012.7 |
| 20260905222735 | 26 | 213 | 1.6 | 1.6 | 0.00 | 1.17 | 1.17 | 81 | 1012.6 |
| 20260905222234 | 26 | 233 | 0.0 | 1.6 | 0.00 | 1.17 | 1.17 | 81 | 1012.6 |
| 20260905221730 | 26 | 200 | 1.6 | 1.6 | 0.00 | 1.17 | 1.17 | 80 | 1012.6 |
| 20260905221227 | 26 | 204 | 1.6 | 3.2 | 0.00 | 1.17 | 1.17 | 81 | 1012.3 |
| 20260905220723 | 26 | 235 | 0.0 | 1.6 | 0.00 | 1.17 | 1.17 | 81 | 1012.5 |
| 20260905220219 | 26 | 147 | 0.0 | 3.2 | 0.00 | 1.17 | 1.17 | 84 | 1012.3 |
| 20260905215718 | 26 | 119 | 0.0 | 3.2 | 0.00 | 1.17 | 1.17 | 82 | 1012.3 |
| 20260905215214 | 26 | 143 | 1.6 | 1.6 | 0.00 | 1.17 | 1.17 | 83 | 1012.1 |
| 20260905214709 | 26 | 234 | 1.6 | 3.2 | 0.00 | 1.17 | 1.17 | 79 | 1012.2 |
| 20260905214205 | 26 | 226 | 0.0 | 3.2 | 0.00 | 1.17 | 1.17 | 80 | 1012.4 |
| 20260905213700 | 25 | 154 | 0.0 | 1.6 | 0.00 | 1.17 | 1.17 | 83 | 1012.3 |
| 20260905213156 | 25 | 190 | 3.2 | 3.2 | 0.00 | 1.17 | 1.17 | 87 | 1012.2 |
| 20260905212651 | 25 | 119 | 0.0 | 1.6 | 0.00 | 1.17 | 1.17 | 85 | 1012.3 |
| 20260905212150 | 25 | 79 | 1.6 | 3.2 | 0.00 | 1.17 | 1.17 | 86 | 1012.2 |
| 20260905211644 | 25 | 164 | 0.0 | 3.2 | 0.00 | 1.17 | 1.17 | 84 | 1012.4 |
| 20260905211140 | 25 | 221 | 4.8 | 4.8 | 0.00 | 1.17 | 1.17 | 85 | 1012.2 |
| 20260905210637 | 25 | 217 | 3.2 | 3.2 | 0.00 | 1.17 | 1.17 | 88 | 1012.5 |
| 20260905210137 | 25 | 255 | 1.6 | 4.8 | 0.00 | 1.17 | 1.17 | 88 | 1012.5 |
| 20260905205636 | 25 | 119 | 0.0 | 1.6 | 0.00 | 1.17 | 1.17 | 90 | 1012.6 |
| 20260905205130 | 25 | 134 | 0.0 | 0.0 | 0.00 | 1.17 | 1.17 | 91 | 1012.5 |
| 20260905204629 | 25 | 154 | 0.0 | 0.0 | 0.00 | 1.17 | 1.17 | 89 | 1012.6 |
| 20260905204125 | 25 | 92 | 0.0 | 0.0 | 0.00 | 1.17 | 1.17 | 89 | 1012.6 |
| 20260905203625 | 25 | 55 | 0.0 | 3.2 | 0.00 | 1.17 | 1.17 | 91 | 1012.6 |